Miscellaneous Local Product
Issued by NWS Hastings, NE

Home | Current Version | Previous Version | Text Only | Print | Product List | Glossary Off
Versions: 1 2 3 4 5 6 7 8 9 10 11 12 13 14 15 16 17 18 19 20 21 22 23 24 25 26 27 28 29 30 31 32 33 34 35 36 37 38 39 40 41 42 43 44 45 46 47 48 49 50

000
AXUS43 KGID 270002
MISGRI

GID CWA HOURLY WEATHER ROUNDUP
NATIONAL WEATHER SERVICE HASTINGS NE
700 PM CDT TUE JUL 26 2016

NOTE: "FAIR" INDICATES FEW OR NO CLOUDS BELOW 12,000 FEET WITH NO
SIGNIFICANT WEATHER AND/OR OBSTRUCTIONS TO VISIBILITY.

...SOUTH CENTRAL NEBRASKA...

CITY           SKY/WX    TMP DP  RH WIND       PRES   REMARKS
GRAND ISLAND   SUNNY     86  66  51 SE8       30.00S
HASTINGS       SUNNY     87  63  44 S9        30.00R
KEARNEY        SUNNY     86  63  45 S10       30.00R
ORD            SUNNY     84  64  50 SE13      29.97F
YORK           MOSUNNY   82  66  57 E12       30.00S
AURORA         SUNNY     85  67  55 SE5       30.00R
LEXINGTON      SUNNY     85  65  49 S14       29.99R
HOLDREGE       SUNNY     86  64  47 SE10      29.99R
HEBRON         MOSUNNY   85  64  48 S6        29.98S

...NEBRASKA PANHANDLE...

CITY           SKY/WX    TMP DP  RH WIND       PRES   REMARKS
CHADRON        SUNNY     95  56  26 NE3       29.91F HX  93
ALLIANCE       CLOUDY    85  63  47 SE12      29.97F
SCOTTSBLUFF    MOSUNNY   85  58  39 S9        29.98S
SIDNEY         CLOUDY    92  39  15 W8        30.02F

...WESTERN AND NORTH CENTRAL NEBRASKA...

CITY           SKY/WX    TMP DP  RH WIND       PRES   REMARKS
VALENTINE      SUNNY     92  63  38 S16       29.91F HX  93
AINSWORTH      SUNNY     87  63  45 S15G21    29.96F
ONEILL         SUNNY     87  62  42 S15       29.98S
BROKEN BOW     SUNNY     84  67  56 S13G24    30.00R
IMPERIAL       CLOUDY    89  61  38 S14       29.97F
NORTH PLATTE   SUNNY     86  67  52 SE9G20    29.96F
MCCOOK         MOSUNNY   88  62  41 SE14      29.97F

...EASTERN NEBRASKA...

CITY           SKY/WX    TMP DP  RH WIND       PRES   REMARKS
NORFOLK        SUNNY     83  64  52 SE13      29.99S
SO SIOUX CITY  SUNNY     86  65  49 SE10      29.99R
TEKAMAH        SUNNY     84  65  52 SE9       29.99F
COLUMBUS       SUNNY     82  63  51 SE10      29.99F
ALBION         SUNNY     82  66  57 SE9       29.99F
OMAHA EPPLEY   MOSUNNY   85  66  53 SE9       29.99F
OFFUTT AFB     SUNNY     84  67  55 E8        30.00F
MILLARD        SUNNY     84  67  56 SE7       29.99F
LINCOLN        SUNNY     85  63  47 E13       30.00F
NEBRASKA CITY  SUNNY     82  65  56 E3        30.01S
BEATRICE       SUNNY     87  63  45 E6        29.99R
FALLS CITY     SUNNY     84  69  60 E7        29.99R

...NORTHERN KANSAS...

CITY           SKY/WX    TMP DP  RH WIND       PRES   REMARKS
GOODLAND       SUNNY     87  64  46 S15       30.01F
HILL CITY      MOSUNNY   88  67  49 SE10      29.99S HX  91
NORTON         CLEAR     88  57  35 SE10G17   29.98F
SMITH CENTER   SUNNY     88  64  45 SE14      29.97F
BELOIT         SUNNY     84  68  58 SE7       29.96S
HAYS           SUNNY     88  64  45 SE12      29.98S
RUSSELL        SUNNY     88  65  46 SE10      29.96S HX  90
CONCORDIA      SUNNY     83  68  60 SE8       29.97F
SALINA         SUNNY     90  68  48 E9        29.96S HX  94
TOPEKA         SUNNY     88  67  49 E6        29.98R HX  91



USA.gov is the U.S. government's official web portal to all federal, state and local government web resources and services.